Find Kosmos-1057

NORAD ID: 11134 Int'l Des: 1978-109 Owner: GUKOSR Country: SU operational
LEOCIRCULAR

Live-Position

3D-Globus wird geladen...

Über Kosmos-1057

Beschreibung wird geladen...

Nächste Überflüge

Passes for default location (London). Set your location on the main map for personalized predictions.

Höhenverlauf

Loading altitude history...

Zweizeiliger Elementsatz

1 11134U 78109G 26106.21644584 -.00000011 00000-0 33918-4 0 9995
2 11134 74.0204 10.6999 0022424 201.8342 327.2716 12.42129758147547
Epoch: 16. Apr. 2026 • Age: 8 hours

Aktueller Status

Höhe 1519.4 km
Geschwindigkeit 7.11 km/s
Subsatellitenpunkt -73.12°S, 106.82°W
Startdatum 5. Dez. 1978
Alter 47.3 years
Typ other

Technische Details

Klassifizierung Payload
Masse 60.00 kg
Trockenmasse 60.00 kg
Gesamtmasse 60.00 kg
Länge 0.80 m
Durchmesser 0.80 m
Spannweite 0.80 m
Form Poly
Hersteller NPOPM
Bus-Typ Strela-1 11F625
Phasenstatus In Orbit
Besitzer/Staat GUKOSR/SU

Most Searched